CW3071 Weather Reports


time (UTC)temp
F
wind
direction
speed
knots
gust
knots
rain 1hr
in
rain 24hr
in
rain mn
in
humidity
%
barometer
mb
20260902204617 71 284 7.0 26.1 0.00 0.00 0.00 54 1013.8
20260902203104 80 262 7.8 16.5 0.00 0.00 0.00 33 1013.8
20260902201604 81 187 5.2 16.5 0.00 0.00 0.00 28 1013.4
20260902200126 82 145 10.4 19.1 0.00 0.00 0.00 27 1013.7
20260902194605 81 157 6.1 24.3 0.00 0.00 0.00 29 1013.5
20260902193125 81 149 8.7 26.1 0.00 0.00 0.00 30 1013.8
20260902191604 82 199 11.3 20.0 0.00 0.00 0.00 29 1013.9
20260902190109 83 195 8.7 17.4 0.00 0.00 0.00 23 1013.8
20260902184645 83 169 7.0 25.2 0.00 0.00 0.00 24 1014.1
20260902183118 83 163 7.8 23.5 0.00 0.00 0.00 24 1014.3
20260902181602 82 158 7.8 16.5 0.00 0.00 0.00 24 1014.3
20260902180100 81 194 10.4 21.7 0.00 0.00 0.00 26 1014.5
20260902174606 80 217 7.0 16.5 0.00 0.00 0.00 28 1014.7
20260902173102 80 209 8.7 13.9 0.00 0.00 0.00 31 1014.9
20260902171604 78 192 7.0 20.0 0.00 0.00 0.00 34 1015.3
20260902170104 78 175 6.1 17.4 0.00 0.00 0.00 36 1015.4
20260902164603 77 162 8.7 18.2 0.00 0.00 0.00 37 1015.5
20260902163101 76 191 7.8 18.2 0.00 0.00 0.00 39 1015.6
20260902161606 75 201 7.8 18.2 0.00 0.00 0.00 40 1015.6
20260902154600 73 194 6.1 18.2 0.00 0.00 0.00 42 1015.8
20260902153104 73 183 8.7 15.6 0.00 0.00 0.00 42 1015.8
20260902151609 72 134 7.0 14.8 0.00 0.00 0.00 43 1015.9
20260902144603 70 153 7.8 16.5 0.00 0.00 0.00 47 1016.0
20260902143100 68 182 4.3 15.6 0.00 0.00 0.00 52 1016.1
20260902141600 66 201 6.1 10.4 0.00 0.00 0.00 53 1016.3
20260902140057 65 150 0.9 4.3 0.00 0.00 0.00 57 1016.1
20260902134610 64 0 0.0 2.6 0.00 0.00 0.00 58 1016.5
20260902133110 63 0 0.0 5.2 0.00 0.00 0.00 59 1016.4
20260902131607 61 94 0.9 6.1 0.00 0.00 0.00 62 1016.3
20260902130105 60 64 0.9 2.6 0.00 0.00 0.00 61 1016.3
20260902124616 60 0 0.9 3.5 0.00 0.00 0.00 63 1016.1
20260902123115 58 350 0.9 2.6 0.00 0.00 0.00 65 1015.9
20260902121604 58 350 0.9 5.2 0.00 0.00 0.00 66 1016.0
20260902120107 57 350 0.0 4.3 0.00 0.00 0.00 67 1016.0
20260902114606 56 350 0.9 2.6 0.00 0.00 0.00 66 1016.0
20260902113120 57 350 0.0 2.6 0.00 0.00 0.00 65 1015.9
20260902111602 57 0 0.9 2.6 0.00 0.00 0.00 63 1016.0
20260902110104 57 350 0.0 1.7 0.00 0.00 0.00 62 1016.1
20260902104603 57 0 0.0 0.0 0.00 0.00 0.00 63 1016.3
20260902103108 58 0 0.0 1.7 0.00 0.00 0.00 62 1016.2
20260902101602 58 0 0.0 2.6 0.00 0.00 0.00 60 1015.9
20260902100112 58 0 0.0 1.7 0.00 0.00 0.00 59 1016.0
20260902094603 58 350 0.0 2.6 0.00 0.00 0.00 60 1015.8
20260902093102 58 350 0.0 2.6 0.00 0.00 0.00 59 1015.8
20260902091610 58 0 0.0 3.5 0.00 0.00 0.00 57 1015.8
20260902090104 59 0 0.0 1.7 0.00 0.00 0.00 57 1015.7
20260902084607 58 350 0.0 2.6 0.00 0.00 0.00 58 1015.9
20260902083102 58 350 0.9 2.6 0.00 0.00 0.00 57 1015.8
20260902081558 59 350 0.9 4.3 0.00 0.00 0.00 56 1015.9
20260902080115 59 0 0.0 2.6 0.00 0.00 0.00 55 1015.9
20260902074604 59 0 0.0 1.7 0.00 0.00 0.00 55 1016.0
20260902073110 60 0 0.0 1.7 0.00 0.00 0.00 54 1016.1
20260902071615 60 0 0.0 3.5 0.00 0.00 0.00 55 1016.2
20260902070106 59 0 0.0 2.6 0.00 0.00 0.00 56 1016.0
20260902064606 59 0 0.0 1.7 0.00 0.00 0.00 57 1015.8
20260902063100 59 350 0.9 2.6 0.00 0.00 0.00 56 1015.8
20260902061609 60 0 0.0 3.5 0.00 0.00 0.00 56 1015.9
20260902060108 60 0 0.0 1.7 0.00 0.00 0.00 57 1015.9
20260902054601 60 0 1.7 3.5 0.00 0.00 0.00 56 1016.0
20260902053102 61 0 0.0 1.7 0.00 0.00 0.00 56 1015.8
20260902051559 61 0 0.0 2.6 0.00 0.00 0.00 54 1015.8
20260902050115 62 115 0.0 5.2 0.00 0.00 0.00 55 1015.8
20260902044604 63 0 0.9 1.7 0.00 0.00 0.00 53 1015.8
20260902043111 64 0 0.0 2.6 0.00 0.00 0.00 53 1015.6
20260902041605 65 315 0.0 0.9 0.00 0.00 0.00 52 1015.8
20260902040106 66 0 0.0 1.7 0.00 0.00 0.00 50 1015.7
20260902034602 67 315 0.0 0.9 0.00 0.00 0.00 49 1015.6
20260902033104 68 0 0.0 0.0 0.00 0.00 0.00 47 1015.7
20260902031600 68 0 0.0 2.6 0.00 0.00 0.00 47 1015.6
20260902030058 69 0 0.0 3.5 0.00 0.00 0.00 45 1015.4
20260902024602 70 355 2.6 3.5 0.00 0.00 0.00 44 1015.0
20260902023102 72 330 0.9 7.0 0.00 0.00 0.00 41 1015.1
20260902021604 73 345 2.6 4.3 0.00 0.00 0.00 41 1014.7
20260902020054 76 338 1.7 4.3 0.00 0.00 0.00 39 1014.3
20260902014556 77 338 3.5 10.4 0.00 0.00 0.00 36 1014.2
20260902013058 78 241 0.9 7.8 0.00 0.00 0.00 31 1014.2
20260902011610 78 267 2.6 9.6 0.00 0.00 0.00 30 1014.1
20260902010121 79 238 4.3 11.3 0.00 0.00 0.00 30 1014.1
20260902004602 80 249 7.0 13.0 0.00 0.00 0.00 29 1014.0
20260902003058 80 232 5.2 11.3 0.00 0.00 0.00 29 1014.0
20260902001605 80 216 5.2 11.3 0.00 0.00 0.00 29 1013.8
20260902000100 80 261 4.3 13.0 0.00 0.00 0.00 30 1013.7
20260901234557 81 192 4.3 11.3 0.00 0.00 0.00 30 1013.8
20260901233105 82 216 5.2 12.2 0.00 0.00 0.00 30 1013.8
20260901231600 82 215 5.2 13.9 0.00 0.00 0.00 30 1013.7
20260901230103 81 233 3.5 10.4 0.00 0.00 0.00 31 1013.7
20260901224602 81 215 6.1 13.0 0.00 0.00 0.00 30 1013.8
20260901223105 81 198 4.3 9.6 0.00 0.00 0.00 30 1013.8
20260901221624 81 197 5.2 13.9 0.00 0.00 0.00 30 1014.0
20260901220107 82 278 7.0 16.5 0.00 0.00 0.00 29 1014.0
20260901214602 80 182 5.2 19.1 0.00 0.00 0.00 32 1014.1
20260901213109 81 198 5.2 13.9 0.00 0.00 0.00 31 1014.3
20260901211612 81 222 5.2 14.8 0.00 0.00 0.00 31 1014.5
20260901210106 81 230 6.1 17.4 0.00 0.00 0.00 33 1014.5